Location: ????????
(56.1167°N, 38.6333°E)
Time: 20:34:05
(UTC+00:00)

Thor Agena Rocket - Pass Details

Date: 18 November 2025
Orbit: 754 x 802 km, 99.1° (Epoch: 14 December)

Event Time Altitude Azimuth Distance (km) Brightness Sun altitude
Rises 14:03:05 0° 156° (SSE) 3,305 6.8 -7.0°
Reaches altitude 10° 14:05:25 10° 156° (SSE) 2,379 6.1 -7.3°
Maximum altitude 14:10:41 81° 70° (ENE) 820 3.6 -8.0°
Drops below altitude 10° 14:15:58 10° 344° (NNW) 2,386 6.0 -8.7°
Sets 14:18:18 0° 344° (NNW) 3,315 6.7 -9.0°
